Location: Flotzheim
(48.8375°N, 10.8136°E)
Time: 21:23:42
(UTC+00:00)

Daily predictions for brighter satellites

Satellite Brightness Start Highest point End
(mag) Time Altitude Azimuth Time Altitude Azimuth Time Altitude Azimuth
Cosmos 2263 Rocket 2.5 16:26:24 10° SW 16:32:05 72° WNW 16:37:46 10° NNE
USA 234 3.9 16:27:50 10° ENE 16:33:59 45° N 16:40:09 10° WNW
Cosmos 1680 Rocket 4.4 16:30:16 10° N 16:34:43 27° NE 16:39:07 10° ESE
Cosmos 1455 3.4 16:32:14 10° NNE 16:35:17 22° ENE 16:38:20 10° ESE
FengYun 1-2 T 4.3 16:32:13 10° SSE 16:37:44 69° ENE 16:43:21 10° N
SL-14 R/B 3.5 16:35:29 10° SSW 16:39:22 73° WNW 16:43:19 10° N
ERS-2 4.1 16:38:23 10° ENE 16:39:57 12° E 16:41:31 10° ESE
Cosmos 1300 3.1 16:37:45 10° NNW 16:41:34 69° W 16:45:21 10° S
NOAA 11 4.2 16:36:42 10° SSE 16:42:12 78° ENE 16:47:43 10° NNW
ARGOS 4.5 16:38:56 10° E 16:42:28 18° NE 16:46:02 10° NNE
H-2A R/B 3.1 16:40:56 10° ESE 16:44:49 23° ENE 16:48:48 10° N
Lacrosse 5 1.9 16:40:02 10° NW 16:45:07 86° NE 16:50:11 10° SE
Cosmos 2058 Rocket 3.3 16:42:51 10° N 16:47:16 52° ENE 16:51:41 10° SSE
BREEZE-M DEB (TANK) 1.6 16:45:12 10° W 16:47:48 73° N 16:49:49 12° E
CZ-4C R/B 3.1 16:44:45 10° N 16:47:54 69° WNW 16:51:03 10° SSW
SMAP 3.6 16:49:34 10° S 16:54:11 65° WSW 16:58:50 10° NNW
Cosmos 1726 Rocket 3.6 16:50:26 10° N 16:54:49 85° W 16:59:13 10° S
ADEOS Rocket 4.4 16:50:57 10° N 16:56:20 35° WNW 17:01:21 10° SW
COSMOS 2406 4.3 16:52:24 10° NNW 16:57:04 25° NE 17:01:44 10° E
Meteor 2-5 Rocket 4.2 16:52:16 10° SSW 16:57:46 64° WNW 17:03:17 10° N
Cosmos 1818 3.9 16:52:36 10° SSW 16:57:48 48° ESE 17:02:59 10° NE
ISS -3.1 16:56:01 10° SW 16:59:16 45° SSE 17:01:49 15° E
CZ-2C R/B 3.4 16:55:14 10° SE 17:00:24 49° ENE 17:05:52 10° N
H-2A R/B 3.6 16:57:36 10° S 17:01:32 47° W 17:05:39 10° NNW
RESURS DK-1 4.4 16:58:28 10° W 17:01:50 23° NW 17:05:12 10° N
Cosmos 1833 Rocket 3.8 16:59:53 10° N 17:04:22 24° NE 17:07:58 13° E
Cosmos 1626 Rocket 4.4 17:01:14 10° SSE 17:05:02 29° E 17:08:53 10° NNE
CZ-4C R/B 3.7 17:03:00 10° W 17:07:48 30° NNW 17:13:29 10° NE
Okean 1-7 Rocket 3.7 17:03:46 10° S 17:08:14 58° E 17:12:44 10° NNE
Cosmos 1538 Rocket 4.4 17:04:20 10° NNW 17:09:29 69° WSW 17:14:36 10° SSE
Cosmos 1777 Rocket 4.2 17:05:01 10° SSW 17:10:17 78° WNW 17:15:37 10° NNE
Cosmos 1626 4.5 17:07:54 10° SW 17:10:57 24° WNW 17:14:00 10° NNW
Cosmos 2082 Rocket 3.7 17:08:48 10° N 17:12:42 18° NE 17:14:41 16° ENE
Cosmos 1844 4.0 17:07:22 10° S 17:12:46 48° ESE 17:18:16 10° NE
Cosmos 2112 Rocket 4.3 17:08:24 10° NNW 17:13:25 43° ENE 17:18:21 10° SE
Helios 1A Rocket 3.8 17:11:25 10° SE 17:14:58 28° ENE 17:18:33 10° N
NOSS 3-1 (C) 4.1 17:09:36 10° NW 17:16:44 60° NE 17:25:05 10° ESE
CREW DRAGON DEMO-1 DEB 3.2 17:15:43 10° WNW 17:18:34 56° SSW 17:20:53 14° SE
COSMO-SKYMED 1 2.6 17:14:58 10° NNE 17:19:18 58° E 17:23:34 10° S
Meteor 1-24 Rocket 4.4 17:14:27 10° SSW 17:19:39 53° WNW 17:24:51 10° N
Meteor 2-10 Rocket 3.8 17:14:37 10° NNW 17:20:08 76° W 17:25:22 10° S
Cosmos 1844 Rocket 2.6 17:19:25 10° SSW 17:25:03 72° ESE 17:30:42 10° NNE
NOSS 2-1 (C) 3.9 17:31:52 10° S 17:34:46 27° ESE 17:34:56 27° ESE
CZ-4B R/B 1.4 17:31:29 10° N 17:34:52 79° WNW 17:38:09 10° SSW
USA 229 DEB 4.0 17:28:19 10° NW 17:35:25 57° NE 17:41:51 15° ESE
USA 229 4.0 17:28:25 10° NW 17:35:30 57° NE 17:41:51 15° ESE
Cosmos 1328 4.3 17:34:11 10° SSE 17:37:51 36° E 17:39:07 29° NE
Cosmos 990 Rocket 4.2 17:32:59 10° S 17:37:57 46° ESE 17:41:19 19° NE
SJ-11-01 4.4 17:33:57 10° SE 17:38:30 52° ENE 17:43:03 10° N
Cosmos 1939 Rocket 4.0 17:35:43 10° S 17:39:41 47° W 17:43:38 10° NNW
NOSS 2-1 (D) 3.7 17:37:38 10° S 17:40:38 31° ESE 17:40:41 31° ESE
Aureole 3 2.9 17:38:02 10° NNW 17:41:26 72° W 17:44:25 10° S
Cosmos 2278 Rocket 3.5 17:38:10 10° SSE 17:41:32 20° ESE 17:41:32 20° ESE
Cosmos-2242 3.7 17:39:51 10° N 17:43:16 31° ENE 17:43:16 31° ENE
Okean O Rocket 3.9 17:40:48 10° SSW 17:44:36 28° W 17:48:26 10° NW
H-2A R/B 3.7 17:41:55 10° N 17:45:56 34° WNW 17:49:51 10° SW
Cosmos 1602 Rocket 3.5 17:42:02 10° S 17:46:16 56° E 17:50:01 13° NNE
Okean-O 2.5 17:42:30 10° SSE 17:46:55 75° ENE 17:51:23 10° N
TELKOM 3 3.3 17:45:58 10° W 17:48:01 64° WNW 17:48:01 64° WNW
CSL-04 Rocket 3.8 17:43:12 10° SE 17:48:25 51° ENE 17:53:44 10° N
ATLAS 5 CENTAUR R/B 3.4 17:45:36 10° W 17:49:06 23° NNW 17:52:10 14° NNE
YAOGAN 1 2.4 17:46:14 10° SSE 17:50:34 79° ENE 17:54:54 10° NNW
NOSS 3-1 (A) 4.1 17:43:45 10° NW 17:50:56 61° NE 17:57:05 20° ESE
Cosmos 44 3.4 17:46:16 10° SSW 17:50:57 56° ESE 17:53:00 33° ENE
X-37B 1.4 17:49:33 10° WSW 17:52:32 38° S 17:52:52 37° SSE
Aureole 2 Rocket 4.0 17:51:25 10° WSW 17:54:09 29° WNW 17:56:15 15° N
MOS 1 Rocket 3.1 17:51:39 10° N 17:55:58 78° WNW 18:00:14 10° SSW
ATLAS 2AS CENTAUR R/B 4.2 17:50:54 10° WNW 17:57:43 30° NNW 18:02:51 15° NE
CZ-4 R/B 1.5 17:54:05 10° S 17:58:10 75° WSW 18:02:11 10° NNW
Cosmos 1428 Rocket 4.5 17:54:15 10° S 18:00:26 62° E 18:06:40 10° NNE
Meteor 1-21 Rocket 4.2 17:55:14 10° SSW 18:00:46 80° WNW 18:06:23 10° N
SL-08 RB Rocket 3.9 18:01:08 45° E 18:01:33 46° ENE 18:05:51 10° N
SJ 16-02 2.0 17:57:17 10° SW 18:01:36 54° WNW 18:05:19 14° NNE
COSMOS 2455 3.7 17:56:11 10° WSW 18:02:01 48° NW 18:06:57 15° NNE
Cosmos 405 4.3 17:58:34 10° N 18:00:24 28° N 18:00:24 28° N
Cosmos 1812 Rocket 3.5 17:58:56 10° N 18:03:22 90° SW 18:07:43 10° S
Cosmos 1627 Rocket 4.4 17:57:22 10° S 18:03:29 69° E 18:09:45 10° NNE
PSLV R/B 3.9 18:00:28 17° NNE 18:03:41 86° E 18:07:55 10° SSW
CZ-3B R/B 2.2 18:01:18 10° WNW 18:04:00 77° SSW 18:08:40 20° SE
Cosmos 1455 4.1 18:07:31 10° NNW 18:10:56 32° W 18:14:22 10° SSW
Cosmos 1340 2.5 18:08:35 10° S 18:12:20 89° E 18:12:37 76° NNE
ERS-2 2.6 18:11:59 26° N 18:13:51 58° WNW 18:17:25 10° SSW
Cosmos 1689 Rocket 3.8 18:17:18 27° SW 18:17:18 27° SW 18:18:46 10° SSW
Cosmos 1898 Rocket 3.4 18:11:00 10° SSW 18:16:16 81° ESE 18:18:36 34° NNE
Cosmos 1092 Rocket 4.0 18:10:07 10° SSW 18:16:19 81° W 18:22:30 10° N
USA 234 3.6 18:14:04 36° ENE 18:16:19 50° NNE 18:22:36 10° WNW
Iridium 4 Rocket 3.6 18:10:44 10° N 18:16:25 86° W 18:21:36 10° S
Cosmos 2263 Rocket 4.4 18:13:12 10° W 18:17:03 18° NW 18:20:55 10° N
Cosmos 1680 Rocket 4.2 18:12:02 10° NNW 18:17:09 54° WSW 18:22:12 10° S
ARGOS 3.1 18:16:42 10° SSE 18:22:04 85° WSW 18:27:30 10° NNW
Cosmos 2344 4.2 18:14:05 10° NW 18:23:15 84° NE 18:35:29 12° SE
H-2A R/B 2.5 18:18:54 10° S 18:23:50 59° W 18:28:57 10° NNW
Meteor 1-27 4.1 18:21:34 10° N 18:27:11 65° ENE 18:28:17 53° SE
Lacrosse 5 4.1 18:23:41 10° WNW 18:27:35 23° SW 18:31:29 10° S
Cosmos 2098 Rocket 4.3 18:22:30 10° S 18:29:47 84° E 18:37:11 10° N
CZ-2C R/B 2.6 18:29:46 59° ENE 18:30:22 63° ESE 18:35:56 10° S
ISS -2.0 18:32:43 10° W 18:34:48 33° WNW 18:34:48 33° WNW
COSMOS 2406 3.3 18:36:15 10° NNW 18:42:04 79° WSW 18:44:01 44° SSE
Cosmos 1937 Rocket 3.5 18:41:28 10° SSW 18:46:47 78° WNW 18:47:28 67° N
Cosmos 1833 Rocket 2.7 18:43:19 10° NNW 18:48:57 80° WSW 18:49:44 66° S
USA 281 4.2 18:58:07 32° NNE 18:58:07 32° NNE 19:02:13 10° NNW
Cosmos 2082 Rocket 2.6 18:52:08 10° NNW 18:56:34 53° N 18:56:34 53° N
CZ-4C R/B 4.1 18:53:38 10° NW 18:58:25 23° N 18:59:07 22° NNE
Cosmos 1553 Rocket 4.4 19:00:25 10° NNW 19:06:45 62° W 19:12:59 10° S
USA 267 4.3 19:26:06 34° SSW 19:26:06 34° SSW 19:29:45 10° SW
Cosmos 2278 Rocket 3.3 19:20:07 10° SW 19:23:28 37° SW 19:23:28 37° SW
S3M 4.4 19:24:17 10° NNW 19:29:53 57° WNW 19:29:53 57° WNW
ATLAS 5 CENTAUR R/B 4.4 19:32:38 10° NW 19:33:43 13° NNW 19:33:43 13° NNW
ATLAS 2AS CENTAUR R/B 4.3 19:44:39 10° NW 19:50:17 27° N 19:50:17 27° N
USA 234 4.1 20:01:24 44° WNW 20:01:24 44° WNW 20:05:41 10° NW
